Regional Weather Roundup
Issued by NWS Austin/San Antonio, TX

Home | Current Version | Previous Version | Text Only | Print | Product List | Glossary On
Versions: 1 2 3 4 5 6 7 8 9 10 11 12 13 14 15 16 17 18 19 20 21 22 23 24 25 26 27 28 29 30 31 32 33 34 35 36 37 38 39 40 41 42 43 44 45 46 47 48 49 50
386
ASUS44 KEWX 230110
RWREWX
SOUTH TEXAS REGIONAL WEATHER ROUNDUP
NATIONAL WEATHER SERVICE AUSTIN/SAN ANTONIO TX
800 PM CDT TUE AUG 22 2017

NOTE: "FAIR" INDICATED FEW OR NO CLOUDS BELOW 12,000 FEET WITH NO
SIGNIFICANT WEATHER AND/OR OBSTRUCTIONS TO VISIBILITY.

* - THESE STATIONS ARE NOT NWS OR FAA STATIONS...AND ARE NOT SUBJECT
    TO NWS AND FAA QUALITY CONTROL.

TXZ171-172-183>190-230200-
TEXAS HILL COUNTRY AND EDWARDS PLATEAU

CITY           SKY/WX    TMP DP  RH WIND       PRES   REMARKS
JUNCTION       PTCLDY    92  62  36 SE10      30.00R HX  92
*LLANO         CLEAR     90  66  45 SE3       30.01R HX  92
BURNET         CLEAR     90  64  42 SE6       30.01S HX  91
*HORSESHOE BAY CLEAR     90  61  38 SE3       29.99R HX  90
*KERRVILLE     CLEAR     87  65  48 S6        30.02R
*FREDERICKSBRG CLEAR     87  59  38 S5        30.02R
*ROCKSPRINGS   NOT AVBL
*BOERNE STAGE  CLEAR     86  61  42 S3        30.02R
*CASTROVILLE   CLEAR     92  61  35 E5        29.97S HX  92
HONDO          CLEAR     92  66  42 E7        29.97R HX  94
*UVALDE        CLEAR     92  62  36 CALM      29.96S HX  92
DEL RIO        CLEAR     96  59  29 SE10      29.92S HX  95
LAUGHLIN AFB   PTCLDY    95  60  31 SE13      29.93S HX  95
CARRIZO SPRGS  PTCLDY    95  63  34 SE3       29.91S HX  96
*EAGLE PASS    CLEAR     95  59  30 SE9       29.93S HX  94
$$

TXZ173-191>194-202-209-217>225-228-230200-
CENTRAL AND SOUTH CENTRAL TEXAS

CITY           SKY/WX    TMP DP  RH WIND       PRES   REMARKS
GEORGETOWN     CLEAR     92  66  42 SE3       29.98S HX  94
AUSTIN/BERGSTM PTCLDY    94  65  38 SE7       29.95R HX  96
AUSTIN/MABRY   CLEAR     94  62  34 E5        29.97R HX  94
*AUSTIN/EXEC   CLEAR     90  63  40 SE7       29.96S HX  90
*LAGO VISTA    CLEAR     89  62  40 CALM      30.00R
SAN MARCOS     CLEAR     90  65  43 SE6       29.96R HX  92
NEW BRAUNFELS  CLEAR     92  64  39 SE8       29.94S HX  93
RANDOLPH AFB   PTCLDY    87  66  49 SE14G20   29.96S HX  90
PT SAN ANTONIO PTCLDY    92  64  39 SE12      29.95R HX  94
SAN ANTONIO    PTCLDY    92  64  39 SE8       29.97S HX  93
STINSON FIELD  PTCLDY    91  70  49 SE9       29.94R HX  96
*LA GRANGE     CLEAR     93  68  43 S10       29.94R HX  97
*GIDDINGS      PTCLDY    90  63  40 SE3       29.96S HX  91
*GONZALES      CLEAR     91  71  51 SE10G21   29.95R HX  97
$$

TXZ163>164-176>182-195>201-210>213-226-227-235-230200-
SOUTHEAST TEXAS

CITY           SKY/WX    TMP DP  RH WIND       PRES   REMARKS
COLLEGE STN    CLEAR     92  66  42 S10       29.95S HX  94
*BRYAN         CLEAR     89  67  47 SE8       29.96S HX  92
*CALDWELL      NOT AVBL
*CROCKETT      PTCLDY    88  68  51 SE3       29.99S HX  91
*BRENHAM       CLEAR     91  67  44 SE5       29.97S HX  93
HUNTSVILLE     CLEAR     91  65  41 VRB3      29.97S HX  93
CONROE         CLEAR     86  71  60 SE6       29.97S HX  91
HOUSTON BUSH   PTCLDY    87  73  62 SE13      29.96F HX  94
HOUSTON HOBBY  PTCLDY    88  70  55 S8        29.97S HX  93
*HOUSTON SW AP CLEAR     83  72  69 SE5       29.98S
PEARLAND       CLEAR     89  71  55 SE7       29.99S HX  95
HOUSTON HOOKS  CLEAR     89  69  51 SE6       29.96S HX  93
ELLINGTON FLD  PTCLDY    88  70  55 SE8       29.99  HX  92
SUGAR LAND     CLEAR     88  69  53 SE12      29.97S HX  92
*HOUSTON EXEC  CLEAR     88  73  62 S7        29.98S HX  96
*CLEVELAND MUN CLEAR     82  75  81 CALM      29.98F
*WHARTON       CLEAR     83  67  58 SE6       29.98S
*COLUMBUS      FAIR      88  68  51 S8        29.98S HX  91
*EAGLE LAKE    CLEAR     88  72  58 S10       29.97R HX  95
$$

TXZ214>216-236>238-230200-
THE UPPER TEXAS COAST

CITY           SKY/WX    TMP DP  RH WIND       PRES   REMARKS
*ORANGE        CLOUDY    84  76  76 SE6       30.00S HX  94
PORT ARTHUR    CLOUDY    82  74  76 SE6       29.98S
GALVESTON      CLEAR     85  75  72 SE9       29.98F HX  93
ANGLETON       CLEAR     85  75  72 SE7       29.98F HX  93
*BAY CITY      CLEAR     85  73  69 SE7       29.98S HX  91
PALACIOS       CLEAR     83  73  72 SE9       29.97S
$$

TXZ229>234-239>247-230200-
TEXAS COASTAL BEND AND RIO GRANDE PLAINS

CITY           SKY/WX    TMP DP  RH WIND       PRES   REMARKS
VICTORIA       CLEAR     87  71  58 SE12      29.97R HX  93
*BEEVILLE      CLEAR     84  74  73 SE6       29.97R HX  91
ROCKPORT       CLEAR     85  73  67 SE16      29.96S HX  91
*PORT ARANSAS  CLEAR     84  76  75 SE9       29.97S HX  93
*PORT LAVACA   CLEAR     84  72  66 SE12      29.97S HX  90
*INGLESIDE     CLEAR     86  76  72 MISG      29.96F HX  95
CORPUS CHRISTI PTCLDY    85  74  69 SE13      29.96S HX  92
CORPUS NAS     PTCLDY    85  77  77 SE10      29.96S HX  95
*ROBSTOWN      CLEAR     88  70  55 SE13      29.97R HX  93
ALICE          CLEAR     87  68  52 SE16      29.95S HX  90
KINGSVILLE NAS PTCLDY    85  75  72 SE13      29.96S HX  93
COTULLA        MOCLDY    94  64  37 SE13      29.92S HX  95
*FAITH RANCH   CLEAR     95  64  36 SE9       29.93R HX  97
LAREDO         CLEAR     92  69  47 SE18      29.93R HX  97
$$

TXZ248>255-230200-
DEEP SOUTH TEXAS

CITY           SKY/WX    TMP DP  RH WIND       PRES   REMARKS
BROWNSVILLE    CLEAR     84  75  74 E10       29.96S HX  92
PORT ISABEL    CLEAR     85  75  72 E12       29.96S HX  93
*SOUTH PADRE   NOT AVBL
HARLINGEN      PTCLDY    86  75  69 E13       29.95S HX  95
*HEBBRONVILLE  CLEAR     89  65  44 SE16      29.98R HX  91
MCALLEN        CLEAR     91  70  49 E14       29.95R HX  96
*WESLACO       CLEAR     87  71  58 SE9       29.95R HX  92
FALFURRIAS     CLEAR     87  69  55 CALM      29.96R HX  91
EDINBURG       CLEAR     89  69  51 E15       29.96R HX  94
*ZAPATA        PTCLDY    91  66  43 E9        29.93S HX  94
$$

TXZ213>215-236>238-242>244-246-247-251-254-255-230200-
CMAN STATIONS

STATION/POSITION TIME  TEMP    WIND        PRES    WAVE
                       AIR SEA DIR/SP/G            HT/PER
                 (UTC) (F)     (DEG/KT/KT) (MB)    (FT/S)
SABINE PASS      0042   85 90  140/  9/ 11 1016.8
SEA RIM ST PARK  0000   85     130/  8/ 11 1016.0
NORTH JETTY/GLS  0042      89  130/ 11/ 12 1014.9
EAGLE POINT      0042   86 91  150/ 10/ 13 1015.5
MORGANS POINT    0042   87 89  140/  6/ 11 1015.1
MISSION/ARANSAS  0000          130/ 13     1015.0
PORT O`CONNOR    0036   85     130/ 14/ 16 1014.5
PORT ARANSAS     0000   84 87  110/ 13/ 14 1015.0
MALAQUITE BEACH  0036   84 88  100/ 12/ 13 1014.1
BAFFIN BAY       0036   84 91              1014.7
PORT ISABEL      0036   84 87              1014.6
$$




USA.gov is the U.S. government's official web portal to all federal, state and local government web resources and services.